Tracking 27107 objects as of 21-Mar-2023
HD Live streaming from Space Station
objects crossing your sky now

SL-8 DEB

Track SL-8 DEB now!
10-day predictions


NORAD ID: 39693
Int'l Code: 1991-009DG
Perigee: 1,493.0 km
Apogee: 1,698.9 km
Inclination: 74.0 °
Period: 117.9 minutes
Semi major axis: 7966 km
RCS: 0.018 m2 (small)
Launch date: February 12, 1991
Source: Commonwealth of Independent States (former USSR) (CIS)
Launch site: PLESETSK MISSILE AND SPACE COMPLEX (PKMTR)

Note: This is SATELLITE DEBRIS
Your satellite tracking list
Your tracking list is empty




NASA's NSSDC Master Catalog

Two Line Element Set (TLE):
1 39693U 91009DG  23079.09362770 -.00000029  00000-0 -13403-3 0  9991
2 39693  74.0354 209.3762 0129208 154.7982 205.9433 12.20863310397991
Source of the keplerian elements: AFSPC